Location: Eastchurch
(51.4000°N, 0.8667°E)
Time: 00:17:30
(UTC+00:00)

NOSS 3-1 (C) - Pass Details

Date: 19 January 2026
Orbit: 618 x 1583 km, 63.4° (Epoch: 10 January)

Event Time Altitude Azimuth Distance (km) Brightness Sun altitude
Rises 18:12:20 0° 314° (NW) 3,616 7.0 -16.4°
Reaches altitude 10° 18:14:39 10° 316° (NW) 2,792 6.3 -16.8°
Maximum altitude 18:21:24 78° 43° (NE) 1,225 3.9 -17.8°
Drops below altitude 10° 18:29:56 10° 131° (SE) 3,491 6.0 -19.1°
Enters shadow 18:30:21 - 131° (SE) 3,632 6.1 -19.2°
